K2RMB Weather Reports


time (UTC)temp
F
wind
direction
speed
knots
gust
knots
rain 1hr
in
rain 24hr
in
rain mn
in
humidity
%
barometer
mb
20260504130447 56 18 2.6 3.5 0.00 0.00 0.00 44 1010.8
20260504110334 47 102 1.7 1.7 0.00 0.00 0.00 58 1011.1
20260504100251 43 102 0.0 0.0 0.00 0.00 0.00 64 1010.8
20260504081645 42 102 0.0 0.0 0.00 0.00 0.00 74 1010.8
20260504081141 42 102 0.0 0.0 0.00 0.00 0.00 74 1010.8
20260504080638 42 102 0.0 0.0 0.00 0.00 0.00 75 1010.8
20260504080134 42 102 0.0 0.0 0.00 0.00 0.00 75 1010.8
20260504050450 44 102 0.0 0.0 0.00 0.00 0.00 67 1011.5
20260504045947 44 102 0.0 0.0 0.00 0.00 0.00 63 1011.8
20260504045443 44 102 0.0 0.0 0.00 0.00 0.00 60 1011.8
20260504044939 44 102 0.0 0.0 0.00 0.00 0.00 60 1011.8
20260504044437 44 102 0.0 0.0 0.00 0.00 0.00 59 1011.8
20260504043934 43 102 0.0 0.0 0.00 0.00 0.00 59 1011.8
20260504043431 43 102 0.0 0.0 0.00 0.00 0.00 60 1011.8
20260504042929 43 102 0.0 0.0 0.00 0.00 0.00 61 1011.8
20260504042425 43 102 0.0 0.0 0.00 0.00 0.00 60 1011.8
20260504041922 43 102 0.0 0.0 0.00 0.00 0.00 61 1011.8
20260504041418 43 102 0.0 0.0 0.00 0.00 0.00 65 1011.5
20260504040914 43 102 0.0 0.0 0.00 0.00 0.00 64 1011.5
20260504040412 43 102 0.0 0.0 0.00 0.00 0.00 66 1011.5
20260504035908 42 102 0.0 0.0 0.00 0.00 0.00 63 1011.5
20260504035405 43 102 0.0 0.0 0.00 0.00 0.00 63 1011.5
20260504034902 43 102 1.7 1.7 0.00 0.00 0.00 61 1011.5
20260504034359 43 102 0.0 0.0 0.00 0.00 0.00 63 1011.5
20260504033856 43 102 0.0 0.0 0.00 0.00 0.00 59 1011.5
20260504033354 43 102 0.0 0.0 0.00 0.00 0.00 59 1011.1
20260504032850 43 102 0.0 0.0 0.00 0.00 0.00 59 1011.5
20260504032348 44 102 0.0 0.0 0.00 0.00 0.00 61 1011.1
20260504031844 44 102 0.0 0.0 0.00 0.00 0.00 58 1011.1
20260504031342 44 102 0.9 0.9 0.00 0.00 0.00 55 1011.1
20260504030838 44 102 0.0 0.0 0.00 0.00 0.00 56 1010.8
20260504030335 44 102 0.0 0.0 0.00 0.00 0.00 56 1011.1
20260504025831 44 102 0.0 0.0 0.00 0.00 0.00 52 1011.1
20260504025328 44 102 0.0 0.0 0.00 0.00 0.00 55 1011.1
20260504024825 45 102 0.0 0.0 0.00 0.00 0.00 53 1011.1
20260504024322 46 102 0.0 0.0 0.00 0.00 0.00 53 1011.1
20260504023818 45 102 0.0 0.0 0.00 0.00 0.00 54 1011.1
20260504023315 46 102 0.0 0.0 0.00 0.00 0.00 46 1011.1
20260504022811 46 102 0.0 0.0 0.00 0.00 0.00 51 1011.5
20260504022308 47 102 0.0 0.0 0.00 0.00 0.00 50 1011.5
20260504021804 47 102 1.7 1.7 0.00 0.00 0.00 46 1011.5
20260504021302 47 102 0.0 0.0 0.00 0.00 0.00 47 1011.5
20260504020759 47 102 0.0 0.0 0.00 0.00 0.00 47 1011.5
20260504020255 47 102 0.9 0.9 0.00 0.00 0.00 46 1011.5
20260504015751 46 102 2.6 2.6 0.00 0.00 0.00 46 1011.1
20260504015248 46 102 1.7 1.7 0.00 0.00 0.00 47 1011.1
20260504014743 46 102 1.7 1.7 0.00 0.00 0.00 46 1011.5
20260504014240 46 102 2.6 3.5 0.00 0.00 0.00 47 1011.1
20260504013738 46 102 1.7 1.7 0.00 0.00 0.00 45 1011.1
20260504013235 46 102 1.7 1.7 0.00 0.00 0.00 46 1011.1
20260504012732 46 102 2.6 2.6 0.00 0.00 0.00 46 1010.8
20260504012230 46 102 2.6 2.6 0.00 0.00 0.00 45 1010.8
20260504011726 46 102 1.7 1.7 0.00 0.00 0.00 46 1010.8
20260504011223 45 102 1.7 1.7 0.00 0.00 0.00 46 1010.8
20260504010719 46 102 0.0 0.0 0.00 0.00 0.00 46 1010.8
20260504010215 46 102 1.7 1.7 0.00 0.00 0.00 46 1010.8
20260504005712 46 102 1.7 1.7 0.00 0.00 0.00 44 1010.4
20260504005209 46 102 0.0 0.0 0.00 0.00 0.00 44 1010.4
20260504004707 46 102 1.7 1.7 0.00 0.00 0.00 44 1010.4
20260504004203 46 102 1.7 1.7 0.00 0.00 0.00 43 1010.4
20260504003700 46 102 0.9 0.9 0.00 0.00 0.00 41 1010.4
20260504003157 45 102 0.0 0.0 0.00 0.00 0.00 45 1010.1
20260504002653 45 102 0.9 0.9 0.00 0.00 0.00 47 1010.1
20260504002151 47 102 0.0 0.0 0.00 0.00 0.00 45 1010.1
20260504001649 47 102 2.6 2.6 0.00 0.00 0.00 37 1010.1
20260504001144 47 102 0.0 0.0 0.00 0.00 0.00 41 1010.1
20260504000642 47 102 0.0 0.0 0.00 0.00 0.00 40 1009.8
20260504000139 48 102 2.6 2.6 0.00 0.00 0.00 39 1009.8
20260503235637 48 102 2.6 2.6 0.00 0.00 0.00 37 1009.8
20260503235133 48 102 1.7 1.7 0.00 0.00 0.00 39 1009.8
20260503234632 48 102 3.5 3.5 0.00 0.00 0.00 38 1009.8
20260503234130 49 102 0.0 0.0 0.00 0.00 0.00 38 1009.3
20260503233626 49 102 1.7 1.7 0.00 0.00 0.00 37 1009.0
20260503233122 49 108 1.7 1.7 0.00 0.00 0.00 38 1009.3
20260503232619 50 108 2.6 2.6 0.00 0.00 0.00 36 1009.8
20260503232116 49 108 0.9 0.9 0.00 0.00 0.00 35 1009.3
20260503231614 50 108 1.7 1.7 0.00 0.00 0.00 37 1009.3
20260503231111 50 108 1.7 1.7 0.00 0.00 0.00 35 1009.0
20260503230608 50 108 1.7 1.7 0.00 0.00 0.00 35 1009.0
20260503230104 51 108 3.5 3.5 0.00 0.00 0.00 35 1009.0
20260503225602 51 108 2.6 2.6 0.00 0.00 0.00 36 1009.0
20260503225056 51 108 2.6 2.6 0.00 0.00 0.00 35 1009.3
20260503224555 50 108 2.6 2.6 0.00 0.00 0.00 36 1009.0
20260503224052 51 108 2.6 2.6 0.00 0.00 0.00 38 1009.0
20260503223550 50 108 3.5 3.5 0.00 0.00 0.00 36 1009.3
20260503223045 51 108 4.3 5.2 0.00 0.00 0.00 36 1009.3
20260503222543 51 108 4.3 4.3 0.00 0.00 0.00 37 1009.3
20260503222041 51 108 5.2 6.1 0.00 0.00 0.00 36 1009.0
20260503221539 51 108 2.6 2.6 0.00 0.00 0.00 37 1009.0
20260503221036 51 108 5.2 5.2 0.00 0.00 0.00 36 1009.0
20260503220532 51 108 5.2 6.1 0.00 0.00 0.00 37 1009.3
20260503220029 51 102 3.5 3.5 0.00 0.00 0.00 36 1009.0
20260503215526 51 102 5.2 6.1 0.00 0.00 0.00 37 1009.0
20260503215023 50 102 5.2 5.2 0.00 0.00 0.00 37 1009.0
20260503214522 50 102 2.6 3.5 0.00 0.00 0.00 39 1009.0
20260503214018 50 102 5.2 5.2 0.00 0.00 0.00 37 1009.0
20260503213516 50 108 2.6 2.6 0.00 0.00 0.00 37 1009.0
20260503213013 50 108 5.2 6.1 0.00 0.00 0.00 38 1009.0
20260503212510 51 108 4.3 4.3 0.00 0.00 0.00 38 1009.0
20260503212008 49 108 4.3 4.3 0.00 0.00 0.00 38 1009.0
20260503211504 49 108 6.1 6.1 0.00 0.00 0.00 40 1009.3
20260503211000 50 108 3.5 3.5 0.00 0.00 0.00 38 1009.0
20260503210457 49 108 7.0 7.8 0.00 0.00 0.00 40 1009.0
20260503205957 49 108 4.3 4.3 0.00 0.00 0.00 40 1009.3
20260503205454 49 108 3.5 3.5 0.00 0.00 0.00 40 1009.3
20260503204951 49 102 3.5 3.5 0.00 0.00 0.00 41 1009.3
20260503204448 49 108 3.5 3.5 0.00 0.00 0.00 41 1009.0
20260503203945 50 108 1.7 1.7 0.00 0.00 0.00 42 1009.3
20260503203443 49 102 3.5 3.5 0.00 0.00 0.00 40 1009.8
20260503202939 49 120 5.2 5.2 0.00 0.00 0.00 42 1009.3
20260503202437 48 120 3.5 3.5 0.00 0.00 0.00 43 1009.3
20260503201936 49 120 3.5 3.5 0.00 0.00 0.00 41 1009.3
20260503201432 49 120 1.7 1.7 0.00 0.00 0.00 46 1009.8
20260503200930 48 120 2.6 2.6 0.00 0.00 0.00 43 1009.3
20260503200426 47 120 5.2 5.2 0.00 0.00 0.00 43 1009.8
20260503195923 47 126 2.6 3.5 0.00 0.00 0.00 44 1009.8
20260503195420 47 126 7.8 9.6 0.00 0.00 0.00 43 1009.8
20260503194916 47 108 6.1 6.1 0.00 0.00 0.00 42 1009.8
20260503194413 48 108 8.7 9.6 0.00 0.00 0.00 43 1009.8
20260503193909 48 114 1.7 1.7 0.00 0.00 0.00 45 1009.8
20260503193404 47 114 1.7 1.7 0.00 0.00 0.00 44 1009.8
20260503192900 47 114 6.1 6.1 0.00 0.00 0.00 43 1010.1
20260503192356 47 108 4.3 5.2 0.00 0.00 0.00 42 1009.8
20260503191853 47 114 7.8 8.7 0.00 0.00 0.00 43 1010.1
20260503191350 47 114 5.2 6.1 0.00 0.00 0.00 43 1010.1
20260503190846 47 114 3.5 3.5 0.00 0.00 0.00 42 1009.8
20260503190344 47 120 5.2 6.1 0.00 0.00 0.00 43 1010.1
20260503185841 46 120 4.3 5.2 0.00 0.00 0.00 43 1010.1
20260503185337 46 120 7.0 7.8 0.00 0.00 0.00 42 1010.1
20260503184836 46 114 9.6 11.3 0.00 0.00 0.00 44 1010.1
20260503184333 47 114 7.8 9.6 0.00 0.00 0.00 42 1010.1
20260503183829 47 114 3.5 3.5 0.00 0.00 0.00 44 1009.8
20260503183326 47 114 5.2 5.2 0.00 0.00 0.00 43 1009.8
20260503182823 46 114 2.6 2.6 0.00 0.00 0.00 44 1010.1
20260503182323 46 120 9.6 10.4 0.00 0.00 0.00 42 1010.1
20260503181819 46 108 3.5 3.5 0.00 0.00 0.00 43 1010.1
20260503181316 46 108 6.1 6.1 0.00 0.00 0.00 44 1010.1
20260503180813 46 114 6.1 6.1 0.00 0.00 0.00 44 1010.1
20260503180311 46 144 4.3 5.2 0.00 0.00 0.00 42 1010.1
20260503175806 46 168 5.2 5.2 0.00 0.00 0.00 44 1010.1
20260503175306 46 168 4.3 5.2 0.00 0.00 0.00 43 1010.1
20260503174806 46 168 5.2 6.1 0.00 0.00 0.00 45 1010.1
20260503174304 46 180 12.2 13.0 0.00 0.00 0.00 42 1010.1
20260503173759 46 120 5.2 5.2 0.00 0.00 0.00 43 1010.1
20260503173255 46 114 6.1 6.1 0.00 0.00 0.00 44 1010.1
20260503172753 46 120 3.5 4.3 0.00 0.00 0.00 45 1010.1
20260503172250 46 120 3.5 4.3 0.00 0.00 0.00 46 1010.1
20260503171746 45 120 5.2 5.2 0.00 0.00 0.00 44 1010.1
20260503171243 45 156 10.4 13.0 0.00 0.00 0.00 45 1010.1
20260503170740 45 102 4.3 4.3 0.00 0.00 0.00 46 1009.8
20260503170237 45 108 7.0 7.8 0.00 0.00 0.00 46 1009.8
20260503160159 44 96 2.6 3.5 0.00 0.00 0.00 52 1010.1
20260503150629 44 108 5.2 5.2 0.00 0.00 0.00 51 1010.4
20260503150125 45 96 4.3 4.3 0.00 0.00 0.00 55 1010.1